User: anonymous   Login
Location: Unspecified
(0.0000°N, 0.0000°E)
Time: 15:07:10
(UTC+01:00)
Language:

ARIANE 5 R/B - Orbit

View from above orbital plane
View from above orbital plane
View from above satellite
View from above satellite

Ground track
Ground track

The orbit data is extracted from the following two-line orbital elements,

1 28886U 05041C   17324.34151567 -.00000098  00000-0 -23708-3 0  9993
2 28886   8.0221 305.8694 7180187 211.3081 103.8733  2.24335732 99239
Epoch (UTC): 20 November 2017 08:11:46
Eccentricity: 0.7180187
inclination: 8.0221°
perigee height: 572 km
apogee height: 35969 km
right ascension of ascending node: 305.8694°
argument of perigee: 211.3081°
revolutions per day: 2.24335732
mean anomaly at epoch: 103.8733°
orbit number at epoch: 9923

The dashed part of the orbit path shows where the satellite is in the earth's shadow,  

DLR